| time (UTC) | temp F | wind direction | speed MPH | gust MPH | rain 1hr in | rain 24hr in | rain mn in | humidity % | barometer mb |
| 20260905194645 | 77 | 0.0 | 0.0 | 0.00 | 0.00 | 0.00 | 53 | 1015.7 | |
| 20260905193710 | 77 | 0.0 | 0.0 | 0.00 | 0.00 | 0.00 | 53 | 1015.6 | |
| 20260905192646 | 76 | 0.0 | 0.0 | 0.00 | 0.00 | 0.00 | 53 | 1015.7 | |
| 20260905191625 | 76 | 0.0 | 0.0 | 0.00 | 0.00 | 0.00 | 54 | 1015.6 | |
| 20260905190157 | 77 | 0.0 | 0.0 | 0.00 | 0.00 | 0.00 | 53 | 1015.7 | |
| 20260905185605 | 77 | 180 | 0.0 | 1.0 | 0.00 | 0.00 | 0.00 | 53 | 1015.7 |
| 20260905184110 | 77 | 0.0 | 0.0 | 0.00 | 0.00 | 0.00 | 52 | 1015.7 | |
| 20260905183105 | 77 | 315 | 2.0 | 3.0 | 0.00 | 0.00 | 0.00 | 52 | 1015.8 |
| 20260905182111 | 79 | 315 | 2.0 | 6.0 | 0.00 | 0.00 | 0.00 | 48 | 1015.7 |
| 20260905181125 | 80 | 180 | 0.0 | 1.0 | 0.00 | 0.00 | 0.00 | 46 | 1015.4 |
| 20260905180110 | 81 | 270 | 3.0 | 5.0 | 0.00 | 0.00 | 0.00 | 43 | 1015.4 |
| 20260905175104 | 82 | 0.0 | 0.0 | 0.00 | 0.00 | 0.00 | 45 | 1015.3 | |
| 20260905174110 | 84 | 0.0 | 1.0 | 0.00 | 0.00 | 0.00 | 44 | 1015.0 | |
| 20260905173105 | 86 | 270 | 3.0 | 4.0 | 0.00 | 0.00 | 0.00 | 39 | 1014.8 |
| 20260905172109 | 86 | 270 | 1.0 | 3.0 | 0.00 | 0.00 | 0.00 | 39 | 1014.7 |
| 20260905171105 | 85 | 0.0 | 0.0 | 0.00 | 0.00 | 0.00 | 41 | 1014.8 | |
| 20260905170110 | 85 | 270 | 2.0 | 3.0 | 0.00 | 0.00 | 0.00 | 42 | 1015.1 |
| 20260905165104 | 86 | 180 | 1.0 | 3.0 | 0.00 | 0.00 | 0.00 | 41 | 1015.0 |
| 20260905164130 | 84 | 0.0 | 1.0 | 0.00 | 0.00 | 0.00 | 44 | 1015.1 | |
| 20260905163104 | 83 | 225 | 1.0 | 3.0 | 0.00 | 0.00 | 0.00 | 45 | 1014.8 |
| 20260905162109 | 84 | 180 | 3.0 | 5.0 | 0.00 | 0.00 | 0.00 | 41 | 1015.1 |
| 20260905161104 | 84 | 180 | 3.0 | 3.0 | 0.00 | 0.00 | 0.00 | 43 | 1014.7 |
| 20260905160150 | 85 | 0.0 | 1.0 | 0.00 | 0.00 | 0.00 | 44 | 1014.6 | |
| 20260905155145 | 83 | 0.0 | 0.0 | 0.00 | 0.00 | 0.00 | 45 | 1015.1 | |
| 20260905154110 | 84 | 0.0 | 0.0 | 0.00 | 0.00 | 0.00 | 45 | 1015.2 | |
| 20260905153105 | 87 | 225 | 3.0 | 5.0 | 0.00 | 0.00 | 0.00 | 37 | 1015.4 |
| 20260905152110 | 88 | 225 | 0.0 | 2.0 | 0.00 | 0.00 | 0.00 | 36 | 1015.2 |
| 20260905151105 | 87 | 180 | 1.0 | 3.0 | 0.00 | 0.00 | 0.00 | 36 | 1015.2 |
| 20260905150111 | 87 | 0.0 | 0.0 | 0.00 | 0.00 | 0.00 | 36 | 1015.4 | |
| 20260905145105 | 88 | 315 | 3.0 | 4.0 | 0.00 | 0.00 | 0.00 | 34 | 1015.3 |
| 20260905144110 | 86 | 0.0 | 0.0 | 0.00 | 0.00 | 0.00 | 37 | 1015.2 | |
| 20260905143104 | 85 | 225 | 2.0 | 3.0 | 0.00 | 0.00 | 0.00 | 38 | 1015.1 |
| 20260905142109 | 87 | 270 | 3.0 | 6.0 | 0.00 | 0.00 | 0.00 | 36 | 1015.1 |
| 20260905141104 | 87 | 270 | 2.0 | 3.0 | 0.00 | 0.00 | 0.00 | 36 | 1015.1 |
| 20260905140109 | 87 | 315 | 2.0 | 5.0 | 0.00 | 0.00 | 0.00 | 37 | 1015.0 |
| 20260905135105 | 86 | 270 | 2.0 | 3.0 | 0.00 | 0.00 | 0.00 | 41 | 1015.1 |
| 20260905134110 | 83 | 292 | 1.0 | 3.0 | 0.00 | 0.00 | 0.00 | 45 | 1015.1 |
| 20260905133105 | 82 | 270 | 3.0 | 4.0 | 0.00 | 0.00 | 0.00 | 45 | 1014.8 |
| 20260905132111 | 81 | 225 | 1.0 | 4.0 | 0.00 | 0.00 | 0.00 | 46 | 1014.7 |
| 20260905131105 | 80 | 225 | 4.0 | 6.0 | 0.00 | 0.00 | 0.00 | 50 | 1015.2 |
| 20260905130110 | 79 | 270 | 7.0 | 9.0 | 0.00 | 0.00 | 0.00 | 50 | 1015.0 |
| 20260905125124 | 79 | 315 | 6.0 | 10.0 | 0.00 | 0.00 | 0.00 | 52 | 1015.1 |
| 20260905124130 | 79 | 315 | 4.0 | 9.0 | 0.00 | 0.00 | 0.00 | 52 | 1015.0 |
| 20260905123105 | 79 | 315 | 6.0 | 9.0 | 0.00 | 0.00 | 0.00 | 53 | 1014.7 |
| 20260905122110 | 79 | 180 | 6.0 | 9.0 | 0.00 | 0.00 | 0.00 | 54 | 1014.8 |
| 20260905121104 | 80 | 270 | 8.0 | 11.0 | 0.00 | 0.00 | 0.00 | 50 | 1014.5 |
| 20260905120110 | 83 | 315 | 6.0 | 9.0 | 0.00 | 0.00 | 0.00 | 46 | 1014.8 |
| 20260905115105 | 83 | 270 | 2.0 | 5.0 | 0.00 | 0.00 | 0.00 | 46 | 1014.6 |
| 20260905114110 | 86 | 270 | 1.0 | 4.0 | 0.00 | 0.00 | 0.00 | 41 | 1014.6 |
| 20260905113105 | 92 | 270 | 5.0 | 6.0 | 0.00 | 0.00 | 0.00 | 36 | 1014.8 |
| 20260905112110 | 94 | 0.0 | 0.0 | 0.00 | 0.00 | 0.00 | 35 | 1014.6 | |
| 20260905111104 | 93 | 0.0 | 0.0 | 0.00 | 0.00 | 0.00 | 34 | 1014.6 | |
| 20260905110110 | 91 | 0.0 | 0.0 | 0.00 | 0.00 | 0.00 | 35 | 1014.7 | |
| 20260905105105 | 91 | 0.0 | 0.0 | 0.00 | 0.00 | 0.00 | 35 | 1014.5 | |
| 20260905104110 | 90 | 0.0 | 0.0 | 0.00 | 0.00 | 0.00 | 36 | 1014.5 | |
| 20260905103105 | 89 | 135 | 0.0 | 1.0 | 0.00 | 0.00 | 0.00 | 38 | 1014.5 |
| 20260905102110 | 89 | 0.0 | 0.0 | 0.00 | 0.00 | 0.00 | 40 | 1014.4 | |
| 20260905100707 | 88 | 0.0 | 1.0 | 0.00 | 0.00 | 0.00 | 42 | 1014.5 | |
| 20260905095643 | 87 | 0.0 | 0.0 | 0.00 | 0.00 | 0.00 | 43 | 1014.5 | |
| 20260905094727 | 86 | 0.0 | 0.0 | 0.00 | 0.00 | 0.00 | 45 | 1014.5 | |
| 20260905093623 | 84 | 0.0 | 0.0 | 0.00 | 0.00 | 0.00 | 46 | 1014.6 | |
| 20260905092647 | 84 | 0.0 | 0.0 | 0.00 | 0.00 | 0.00 | 47 | 1014.6 | |
| 20260905091643 | 84 | 0.0 | 0.0 | 0.00 | 0.00 | 0.00 | 48 | 1014.5 | |
| 20260905090646 | 83 | 0.0 | 0.0 | 0.00 | 0.00 | 0.00 | 49 | 1014.6 | |
| 20260905085622 | 82 | 0.0 | 0.0 | 0.00 | 0.00 | 0.00 | 51 | 1014.5 | |
| 20260905084707 | 80 | 0.0 | 0.0 | 0.00 | 0.00 | 0.00 | 53 | 1014.5 | |
| 20260905083643 | 79 | 0.0 | 0.0 | 0.00 | 0.00 | 0.00 | 55 | 1014.6 | |
| 20260905082647 | 78 | 0.0 | 0.0 | 0.00 | 0.00 | 0.00 | 58 | 1014.5 | |
| 20260905081623 | 78 | 0.0 | 0.0 | 0.00 | 0.00 | 0.00 | 60 | 1014.6 | |
| 20260905080647 | 77 | 0.0 | 0.0 | 0.00 | 0.00 | 0.00 | 61 | 1014.6 | |
| 20260905075622 | 75 | 0.0 | 1.0 | 0.00 | 0.00 | 0.00 | 64 | 1014.6 | |
| 20260905074159 | 74 | 0.0 | 0.0 | 0.00 | 0.00 | 0.00 | 65 | 1014.6 | |
| 20260905072709 | 73 | 180 | 0.0 | 2.0 | 0.00 | 0.00 | 0.00 | 64 | 1014.6 |
| 20260905071642 | 73 | 0.0 | 0.0 | 0.00 | 0.00 | 0.00 | 63 | 1014.4 | |
| 20260905070219 | 74 | 0.0 | 0.0 | 0.00 | 0.00 | 0.00 | 61 | 1014.5 | |
| 20260905064735 | 74 | 0.0 | 0.0 | 0.00 | 0.00 | 0.00 | 61 | 1014.4 | |
| 20260905063622 | 74 | 0.0 | 0.0 | 0.00 | 0.00 | 0.00 | 61 | 1014.2 | |
| 20260905062647 | 74 | 0.0 | 0.0 | 0.00 | 0.00 | 0.00 | 61 | 1014.3 | |
| 20260905061643 | 74 | 0.0 | 0.0 | 0.00 | 0.00 | 0.00 | 62 | 1014.4 | |
| 20260905060159 | 74 | 0.0 | 0.0 | 0.00 | 0.00 | 0.00 | 61 | 1014.5 | |
| 20260905054755 | 74 | 0.0 | 0.0 | 0.00 | 0.00 | 0.00 | 61 | 1014.3 | |
| 20260905053623 | 74 | 0.0 | 0.0 | 0.00 | 0.00 | 0.00 | 61 | 1014.4 | |
| 20260905052647 | 74 | 0.0 | 0.0 | 0.00 | 0.00 | 0.00 | 61 | 1014.4 | |
| 20260905051711 | 74 | 0.0 | 0.0 | 0.00 | 0.00 | 0.00 | 60 | 1014.5 | |
| 20260905050646 | 74 | 0.0 | 0.0 | 0.00 | 0.00 | 0.00 | 61 | 1014.5 | |
| 20260905045710 | 74 | 0.0 | 0.0 | 0.00 | 0.00 | 0.00 | 60 | 1014.5 | |
| 20260905044706 | 74 | 0.0 | 0.0 | 0.00 | 0.00 | 0.00 | 60 | 1014.5 | |
| 20260905043730 | 75 | 0.0 | 0.0 | 0.00 | 0.00 | 0.00 | 58 | 1014.7 | |
| 20260905042647 | 75 | 0.0 | 0.0 | 0.00 | 0.00 | 0.00 | 58 | 1014.6 | |
| 20260905041622 | 75 | 0.0 | 0.0 | 0.00 | 0.00 | 0.00 | 57 | 1014.8 | |
| 20260905040707 | 75 | 0.0 | 0.0 | 0.00 | 0.00 | 0.00 | 57 | 1014.8 | |
| 20260905035644 | 75 | 270 | 1.0 | 2.0 | 0.00 | 0.00 | 0.00 | 57 | 1015.0 |
| 20260905034647 | 75 | 0.0 | 0.0 | 0.00 | 0.00 | 0.00 | 58 | 1014.7 | |
| 20260905033623 | 75 | 0.0 | 0.0 | 0.00 | 0.00 | 0.00 | 58 | 1014.7 | |
| 20260905032104 | 76 | 0 | 1.0 | 3.0 | 0.00 | 0.00 | 0.00 | 57 | 1015.2 |
| 20260905030707 | 77 | 225 | 0.0 | 2.0 | 0.00 | 0.00 | 0.00 | 53 | 1015.2 |
| 20260905025136 | 79 | 0.0 | 1.0 | 0.00 | 0.00 | 0.00 | 49 | 1015.0 | |
| 20260905024115 | 80 | 0.0 | 0.0 | 0.00 | 0.00 | 0.00 | 48 | 1014.7 | |
| 20260905023223 | 80 | 0.0 | 0.0 | 0.00 | 0.00 | 0.00 | 48 | 1014.7 | |
| 20260905022114 | 80 | 0.0 | 0.0 | 0.00 | 0.00 | 0.00 | 47 | 1014.6 | |
| 20260905020647 | 80 | 135 | 1.0 | 2.0 | 0.00 | 0.00 | 0.00 | 49 | 1014.4 |
| 20260905015623 | 80 | 90 | 2.0 | 5.0 | 0.00 | 0.00 | 0.00 | 50 | 1014.6 |
| 20260905014111 | 79 | 135 | 1.0 | 2.0 | 0.00 | 0.00 | 0.00 | 51 | 1014.6 |
| 20260905012623 | 79 | 90 | 2.0 | 5.0 | 0.00 | 0.00 | 0.00 | 52 | 1014.6 |
| 20260905011624 | 79 | 0.0 | 1.0 | 0.00 | 0.00 | 0.00 | 53 | 1015.1 | |
| 20260905010111 | 77 | 0.0 | 0.0 | 0.00 | 0.00 | 0.00 | 57 | 1015.1 | |
| 20260905004623 | 77 | 0.0 | 0.0 | 0.00 | 0.00 | 0.00 | 58 | 1015.1 | |
| 20260905003644 | 77 | 0.0 | 0.0 | 0.00 | 0.00 | 0.00 | 58 | 1015.2 | |
| 20260905002623 | 77 | 0.0 | 0.0 | 0.00 | 0.00 | 0.00 | 59 | 1015.3 | |
| 20260905001643 | 76 | 0.0 | 0.0 | 0.00 | 0.00 | 0.00 | 60 | 1015.6 | |
| 20260905000644 | 77 | 180 | 0.0 | 1.0 | 0.00 | 0.00 | 0.00 | 60 | 1015.8 |
| 20260904235623 | 76 | 90 | 0.0 | 2.0 | 0.00 | 0.00 | 0.00 | 64 | 1015.6 |
| 20260904234110 | 74 | 0.0 | 1.0 | 0.00 | 0.00 | 0.00 | 66 | 1016.0 | |
| 20260904232624 | 73 | 135 | 1.0 | 3.0 | 0.00 | 0.00 | 0.00 | 65 | 1016.1 |
| 20260904231623 | 74 | 0.0 | 0.0 | 0.00 | 0.00 | 0.00 | 65 | 1016.3 | |
| 20260904230623 | 75 | 0.0 | 1.0 | 0.00 | 0.00 | 0.00 | 65 | 1016.5 | |
| 20260904225623 | 74 | 0.0 | 0.0 | 0.00 | 0.00 | 0.00 | 66 | 1016.9 | |
| 20260904224131 | 73 | 0.0 | 0.0 | 0.00 | 0.00 | 0.00 | 66 | 1017.4 | |
| 20260904222623 | 73 | 225 | 1.0 | 2.0 | 0.00 | 0.00 | 0.00 | 66 | 1016.9 |
| 20260904221624 | 73 | 135 | 3.0 | 4.0 | 0.00 | 0.00 | 0.00 | 66 | 1016.8 |
| 20260904220111 | 72 | 0.0 | 1.0 | 0.00 | 0.00 | 0.00 | 65 | 1017.2 | |
| 20260904214624 | 72 | 0.0 | 0.0 | 0.00 | 0.00 | 0.00 | 64 | 1017.4 | |
| 20260904213624 | 72 | 0.0 | 0.0 | 0.00 | 0.00 | 0.00 | 64 | 1017.7 | |
| 20260904212111 | 73 | 0.0 | 0.0 | 0.00 | 0.00 | 0.00 | 63 | 1018.1 | |
| 20260904210624 | 73 | 0.0 | 1.0 | 0.00 | 0.00 | 0.00 | 62 | 1018.1 | |
| 20260904205624 | 74 | 0.0 | 0.0 | 0.00 | 0.00 | 0.00 | 61 | 1017.9 | |
| 20260904204624 | 74 | 0.0 | 2.0 | 0.00 | 0.00 | 0.00 | 60 | 1017.8 | |
| 20260904203623 | 75 | 315 | 5.0 | 7.0 | 0.00 | 0.00 | 0.00 | 61 | 1017.9 |
| 20260904202110 | 74 | 225 | 0.0 | 2.0 | 0.00 | 0.00 | 0.00 | 60 | 1017.3 |
| 20260904200624 | 73 | 0.0 | 0.0 | 0.00 | 0.00 | 0.00 | 61 | 1016.8 | |
| 20260904195644 | 73 | 0.0 | 0.0 | 0.00 | 0.00 | 0.00 | 62 | 1016.4 |